Weather History for Rolla, MO

Change the Weather History Date:

Sunday, January 26, 2014

  Actual Average Record
Temperature  
Mean Temperature 42 °F 32 °F  
Max Temperature 58 °F 41 °F 67 °F (1953)
Min Temperature 25 °F 22 °F -3 °F (1978)
Degree Days  
Heating Degree Days 23 33  
Month to date heating degree days 989 883  
Since 1 July heating degree days 3076 2800  
Cooling Degree Days 0 0  
Month to date cooling degree days 0 0  
Year to date cooling degree days 0 0  
Moisture  
Dew Point 24 °F    
Average Humidity 48    
Maximum Humidity 64    
Minimum Humidity 31    
Precipitation  
Precipitation 0.00 in 0.06 in 0.86 in (1967)
Month to date precipitation 0.85 1.87  
Year to date precipitation 0.85 1.87  
Sea Level Pressure  
Sea Level Pressure 29.72 in    
Wind  
Wind Speed 16 mph (West)    
Max Wind Speed 36 mph    
Max Gust Speed 48 mph    
Visibility 10 miles    
Events      
T = Trace of Precipitation, MM = Missing Value Source: NWS Daily Summary

Daily Weather History Graph

Daily Weather History Graph

Search for Another Location

Airport:

Trip Planner

Search our weather history database for the weather conditions in past years. The results will help you decide how hot, cold, wet, or windy it might be!

Date:

Astronomy

Jan. 26, 2014 Rise Set
Actual Time 7:16 AM CST 5:23 PM CST
Civil Twilight 6:48 AM CST 5:51 PM CST
Nautical Twilight 6:16 AM CST 6:23 PM CST
Astronomical Twilight 5:45 AM CST 6:54 PM CST
Moon 2:53 AM CST (1/26) 1:13 PM CST (1/26)
Length of Visible Light 11h 03m
Length of Day
10h 06m
Waning Crescent, 23% of the Moon is Illuminated
Jan 26
Waning Crescent
Jan 30
New
Feb 6
First Quarter
Feb 14
Full
Feb 22
Last Quarter

Hourly Weather History & Observations

Time (CST) Temp. Windchill Dew Point Humidity Pressure Visibility Wind Dir Wind Speed Gust Speed Precip Events Conditions
12:53 AM 28.9 °F 18.6 °F 1.9 °F 32% 29.80 in 10.0 mi South 12.7 mph - N/A   Clear
1:53 AM 30.0 °F 20.5 °F 7.0 °F 38% 29.77 in 10.0 mi South 11.5 mph - N/A   Clear
2:53 AM 33.1 °F 21.5 °F 17.1 °F 52% 29.71 in 10.0 mi SSW 19.6 mph - N/A   Clear
3:53 AM 33.1 °F 21.9 °F 21.0 °F 61% 29.69 in 10.0 mi SSW 18.4 mph - N/A   Mostly Cloudy
4:53 AM 35.1 °F 24.1 °F 24.1 °F 64% 29.66 in 10.0 mi SSW 19.6 mph - N/A   Clear
5:53 AM 37.9 °F 28.9 °F 26.1 °F 62% 29.65 in 10.0 mi SSW 16.1 mph - N/A   Clear
6:53 AM 39.0 °F 30.6 °F 27.0 °F 62% 29.68 in 10.0 mi SW 15.0 mph - N/A   Clear
7:53 AM 39.9 °F 32.5 °F 28.0 °F 63% 29.68 in 10.0 mi SW 12.7 mph - N/A   Clear
8:53 AM 46.9 °F - 30.0 °F 52% 29.69 in 10.0 mi West 15.0 mph 21.9 mph N/A   Clear
9:53 AM 50.0 °F - 30.0 °F 46% 29.69 in 10.0 mi West 18.4 mph - N/A   Clear
10:53 AM 52.0 °F - 30.0 °F 43% 29.69 in 10.0 mi West 19.6 mph - N/A   Clear
11:53 AM 54.0 °F - 30.9 °F 41% 29.66 in 10.0 mi West 15.0 mph 21.9 mph N/A   Clear
12:53 PM 55.9 °F - 30.0 °F 37% 29.62 in 10.0 mi West 13.8 mph - N/A   Clear
1:53 PM 57.9 °F - 28.9 °F 33% 29.60 in 10.0 mi West 19.6 mph 24.2 mph N/A   Clear
2:53 PM 57.0 °F - 30.0 °F 36% 29.60 in 10.0 mi West 16.1 mph 24.2 mph N/A   Clear
3:53 PM 55.0 °F - 28.9 °F 37% 29.61 in 10.0 mi West 17.3 mph 24.2 mph N/A   Clear
4:53 PM 53.1 °F - 28.0 °F 38% 29.64 in 10.0 mi West 16.1 mph - N/A   Partly Cloudy
5:53 PM 48.9 °F - 28.0 °F 44% 29.66 in 10.0 mi West 8.1 mph - N/A   Clear
6:53 PM 48.0 °F - 28.0 °F 46% 29.68 in 10.0 mi WNW 8.1 mph - N/A   Clear
7:53 PM 44.1 °F 39.5 °F 26.1 °F 49% 29.71 in 10.0 mi West 8.1 mph - N/A   Scattered Clouds
8:53 PM 46.9 °F - 26.1 °F 44% 29.74 in 10.0 mi West 9.2 mph - N/A   Partly Cloudy
9:45 PM 37.9 °F 26.8 °F 24.1 °F 57% 29.85 in 10.0 mi NNW 24.2 mph 42.6 mph N/A   Partly Cloudy
9:53 PM 37.0 °F 24.7 °F 23.0 °F 57% 29.87 in 10.0 mi NNW 28.8 mph 34.5 mph N/A   Clear
10:53 PM 34.0 °F 22.4 °F 19.9 °F 56% 29.94 in 10.0 mi NNW 20.7 mph 33.4 mph N/A   Mostly Cloudy
11:53 PM 27.0 °F 11.3 °F 12.0 °F 53% 30.01 in 10.0 mi NNW 27.6 mph 42.6 mph N/A   Overcast